Погода в Голой Пристани

Украина / Херсонская область     46°32′00″N   32°31′57″E
темп.,
°C
ветер,
м/с
пор.,
м/с
влажн.,
%
обл.,
%
осадки,
мм/ч
давл.,
гПа
погр.,
м
24 мая, вт
вт2400:00+13ссв2381100 0.3 101182
03:00+12с3482100 0.4 1011107
06:00+11ссз358446 0.0 1012146
09:00+15ссз33615 0.0 1013560
12:00+18зсз334963 0.4 10131447
15:00+20з344232 0.5 10131607
18:00+18зсз55545 0.1 1014752
21:00+16зюз466699 0.1 1015190
25 мая, ср
ср2500:00+14зюз467669 0.1 1016102
03:00+12зсз23745 0.1 101727
06:00+11с34715 0.0 101861
09:00+17ссв33434 0.0 1019494
12:00+21с23305 0.0 10201932
15:00+22з32299 0.0 10192281
18:00+20з654558 0.0 1019858
21:00+15юз4767100 0.0 1020141
26 мая, чт
чт2600:00+14юз3674100 0.0 102096
03:00+13ююз477774 0.0 1019117
06:00+13ю4107851 0.0 1018255
09:00+18ююз8115198 0.0 1018899
12:00+18юз91352100 0.1 1018969
15:00+20зюз9106097 0.2 10171011
18:00+19зюз577349 0.0 1017558
21:00+17юз33812 0.3 101735
27 мая, пт
пт2700:00+16з348053 0.0 101865
03:00+14сз33735 0.0 101923
06:00+14зсз22743 0.0 101925
09:00+20сз45525 0.0 1019528
12:00+24з56406 0.0 10181616
15:00+25зюз673568 0.0 10171751
18:00+22юз794562 0.0 1016700
21:00+17ююз410685 0.0 1016201
28 мая, сб
сб2800:00+17юз512710 0.0 1015300
03:00+17ююз61369100 0.0 1013380
06:00+18ююз7136661 0.0 1012449
09:00+21юз810565 0.0 1012736
12:00+23зюз89525 0.0 10121053
15:00+23юз89508 0.0 1011942
18:00+21з566097 0.0 1012805
21:00+16с81079100 0.6 1013485